Miscellaneous Local Product
Issued by NWS North Platte, NE

Home | Current Version | Previous Version | Text Only | Print | Product List | Glossary On
Versions: 1 2 3 4 5 6 7 8 9 10 11 12 13 14 15 16 17 18 19 20 21 22 23 24 25 26 27 28 29 30 31 32 33 34 35 36 37 38 39 40 41 42 43 44 45 46 47 48 49 50
000
AXUS43 KLBF 290910
MISLBF


WESTERN AND NORTH CENTRAL NEBRASKA HOURLY WEATHER ROUNDUP
NATIONAL WEATHER SERVICE NORTH PLATTE NE
400 AM CDT FRI APR 29 2016

NOTE: "FAIR" INDICATES FEW OR NO CLOUDS BELOW 12,000 FEET WITH NO
SIGNIFICANT WEATHER AND/OR OBSTRUCTIONS TO VISIBILITY.

NOTE: STATIONS NOT REPORTING VARIABLES SUCH AS SKY/WEATHER OR
PRESSURE ARE PROVIDED BY RAWS AND APRS NETWORKS AND ARE NOT UNDER
NATIONAL WEATHER SERVICE QUALITY CONTROL.

...OBSERVATIONS IN AND NEAR THE EASTERN PANHANDLE OF NEBRASKA...

CITY           SKY/WX    TMP DP  RH WIND       PRES   REMARKS
PINE RIDGE     CLOUDY    37  33  85 CALM      30.10S
CHADRON        CLOUDY    37  35  92 NE5       30.11F WCI  33
ALLIANCE       CLOUDY    37  35  92 NE6       30.08S WCI  32
SIDNEY         CLOUDY    34  33  96 E5        30.08R FOG     WCI  30
CRESCENT LAKE    N/A     36  36  99 CALM        N/A
BIG SPRINGS      N/A     41  38  87 NE3         N/A
$$

...OBSERVATIONS IN NORTHERN NEBRASKA AND FAR SOUTHERN SOUTH DAKOTA...

CITY           SKY/WX    TMP DP  RH WIND       PRES   REMARKS
WINNER         CLOUDY    42  38  85 CALM      30.10F
VALENTINE      CLOUDY    39  37  92 N8        30.09F WCI  33
THEDFORD       CLOUDY    40  38  92 CALM      30.12R
AINSWORTH      CLOUDY    39  39  98 CALM      30.10R
O`NEILL        CLOUDY    41  40  95 CALM      30.11S FOG
ORD            CLOUDY    41  39  93 S5        30.10S
BROKEN BOW     CLOUDY    41  38  89 CALM      30.11R
VALENTINE NWR    N/A     38  37  97 N6          N/A  WCI  33
BUTTE            N/A     37  36  97 CALM        N/A
HALSEY           N/A     38  36  94 CALM        N/A
CHAMBERS         N/A     40  38  94 CALM        N/A
EWING            N/A     41  39  94 CALM        N/A
$$

...OBSERVATIONS IN SOUTHWEST NEBRASKA AND FAR NORTHEAST COLORADO...

CITY           SKY/WX    TMP DP  RH WIND       PRES   REMARKS
IMPERIAL       CLOUDY    41  38  89 E5        30.08S
OGALLALA       CLOUDY    40  36  85 E8        30.10S WCI  35
NORTH PLATTE   CLOUDY    41  38  89 NE7       30.11R
MCCOOK         CLOUDY    44  40  85 E5        30.09R
LEXINGTON      CLOUDY    42  40  91 NE6       30.11S
PAXTON           N/A     41  38  89 NE7         N/A
STAPLETON        N/A     38  36  93 CALM        N/A
GOTHENBURG       N/A     42  38  85 E6          N/A
CALLAWAY         N/A     39  38  95 NE5         N/A
$$

...OBSERVATIONS IN CENTRAL LINCOLN COUNTY AREA...

CITY           SKY/WX    TMP DP  RH WIND       PRES   REMARKS
N.P. AIRPORT   CLOUDY    41  38  89 NE7       30.11R
N.P. DOWNTOWN    N/A     40  38  91 NE3         N/A
N.P. SOUTHEAST   N/A     40  37  89 NE3         N/A
N.P. HILLCREST   N/A     40  38  93 E5          N/A
$$

...SOME OBSERVATIONS FROM AROUND THE REGION...

CITY           SKY/WX    TMP DP  RH WIND       PRES   REMARKS
DENVER         LGT SNOW  33  30  88 SE6       30.03R FOG     WCI  28
LARAMIE        CLOUDY    30  27  88 SE13      29.95F WCI  20
CHEYENNE       LGT SNOW  32  30  92 SE13      30.02S FOG     WCI  22
SCOTTSBLUFF    CLOUDY    34  32  92 E10       30.08F WCI  26
RAPID CITY     CLOUDY    36  34  92 NE5       30.10S WCI  32
BISMARCK       MOCLDY    37  31  78 CALM      30.17R
PIERRE         CLOUDY    40  38  93 N6        30.11S
SIOUX FALLS    CLOUDY    40  37  89 NE3       30.13R
OMAHA          CLOUDY    45  42  89 N5        30.12S
GRAND ISLAND   CLOUDY    40  38  93 N5        30.13R
KANSAS CITY    LGT RAIN  48  45  89 N16       30.04F
WICHITA        CLOUDY    53  46  77 E14       29.95F
OKLAHOMA CITY  LGT RAIN  57  54  89 NE14      29.83S
DALLAS         MOCLDY    73  65  75 S10       29.70F
AMARILLO       CLOUDY    54  52  93 E15       29.78F THUNDER
DODGE CITY     HVY RAIN  44  42  93 N23G32    29.97R FOG
HAYS           CLOUDY    46  37  71 NE13      30.04F
GOODLAND       RAIN      40  38  93 E12       30.05F FOG     WCI  33
$$




USA.gov is the U.S. government's official web portal to all federal, state and local government web resources and services.